Regional Weather Roundup
Issued by NWS State College, PA

Current Version | Previous Version | Text Only | Print | Product List | Glossary On
Versions: 1 2 3 4 5 6 7 8 9 10 11 12 13 14 15 16 17 18 19 20 21 22 23 24 25 26 27 28 29 30 31 32 33 34 35 36 37 38 39 40 41 42 43 44 45 46 47 48 49 50
000
ASUS41 KCTP 280410
RWRCTP

REGIONAL WEATHER ROUNDUP
NATIONAL WEATHER SERVICE STATE COLLEGE PA
1200 AM EDT MON JUL 28 2014

Note: "fair" indicates few or no clouds below 12,000 feet with no
significant weather and/or obstructions to visibility.

* = STATION THAT DOES NOT REPORT PRECIPITATION /E.G. RAIN...SNOW...ETC/
    THUNDER OR FOG.

PAZ002>004-007>009-013>016-020>023-029>032-280500-
WESTERN PENNSYLVANIA

CITY           SKY/WX    TMP DP  RH WIND       PRES   REMARKS
ERIE           CLOUDY    64  61  90 SE6       29.64F
MEADVILLE      CLOUDY    60  58  92 NE6       29.66S
FRANKLIN*      CLOUDY    61  55  82 NE5       29.66S
NEW CASTLE       N/A     63  62  96 CALM      29.65F
BEAVER COUNTY  NOT AVBL
BUTLER*        CLOUDY    64  61  88 W3        29.66F
PITTSBURGH INT MOCLDY    68  63  84 SW3       29.65F
PITTSBURGH     MOCLDY    69  66  90 SW7       29.65F
INDIANA*       FOG       66  64  94 VRB6G17   29.71R VSB 3/4
LATROBE        CLOUDY    70  70 100 SW12      29.68R FOG
WASHINGTON CO* PTCLDY    68  66  94 SW6       29.68R
$$

PAZ004>006-010>012-017>019-024>028-033>037-041-042-045-046-049>053-280500-
CENTRAL PENNSYLVANIA

CITY           SKY/WX    TMP DP  RH WIND       PRES   REMARKS
BRADFORD       CLOUDY    63  61  93 W9        29.71R
DUBOIS         MOCLDY    64  60  87 SE8       29.65F
CLEARFIELD     LGT RAIN  63  62  97 CALM      29.67S
JOHNSTOWN      CLOUDY    66  62  87 S7        29.68F
ALTOONA        CLOUDY    67  65  93 SE3       29.67F
STATE COLLEGE  CLOUDY    64  64  97 CALM      29.66F
WILLIAMSPORT   LGT RAIN  68  63  84 S3        29.64F
SELINSGROVE    CLOUDY    68  66  93 CALM      29.65F
FT INDIANTOWN  MOCLDY    66  66 100 SW5       29.66F
CAPITAL CITY   LGT RAIN  66  64  93 CALM      29.66F
HARRISBURG     CLOUDY    67  64  90 CALM      29.65F
YORK           TSTM      66  64  93 S7G20     29.67F FOG
$$

PAZ038>040-043-044-047-048-054-055-060>062-067>071-280500-
EASTERN PENNSYLVANIA

CITY           SKY/WX    TMP DP  RH WIND       PRES   REMARKS
SCRANTON       CLOUDY    69  60  73 CALM      29.64F
MOUNT POCONO   LGT RAIN  66  60  81 S10       29.73F
ALLENTOWN      CLOUDY    68  64  87 E12       29.67F
QUAKERTOWN*    CLOUDY    66  66 100 E3        29.66F
READING        CLOUDY    69  66  90 NE3       29.63F
LANCASTER      LGT RAIN  66  65  96 S5        29.65F
COATESVILLE    CLOUDY    66  66 100 SE3       29.67F FOG
POTTSTOWN      CLOUDY    67  66  97 CALM      29.66F
BLUE BELL        N/A     70  66  88 SW9       29.65F VSB 1
DOYLESTOWN     TSTM      68  67  96 VRB3      29.65F
WILLOW GROVE   NOT AVBL
NORTH PHILA    LGT RAIN  73  66  78 N8        29.68S
PHILADELPHIA   TSTM      74  68  81 N10G18    29.67R
$$



USA.gov is the U.S. government's official web portal to all federal, state and local government web resources and services.